Orbital Elements at Epoch 2459200.5 (2020-Dec-17.0) TDB
Reference: JPL 12 (heliocentric ecliptic J2000)
Element | Value | Uncertainty (1-sigma) | Units |
e | .09934934583694058 | 5.9859e-08 | |
a | 3.029712822201417 | 4.8174e-08 | au |
q | 2.728712835241915 | 2.091e-07 | au |
i | 11.09240816749335 | 5.9705e-06 | deg |
node | 110.2598140103964 | 4.1035e-05 | deg |
peri | 202.3395273781126 | 6.5341e-05 | deg |
M | 327.4467218416871 | 4.9397e-05 | deg |
tp | 2459374.677820794632 (2021-Jun-09.17782079) | 0.00026468 | TDB |
period | 1926.196654638764 5.27 | 4.5941e-05 1.258e-07 | d yr |
n | .1868968047125562 | 4.4576e-09 | deg/d |
Q | 3.330712809160918 | 5.296e-08 | au |
|
| | Orbit Determination Parameters
Additional Information
|